Location: ???????
(54.6339°N, 39.4245°E)
Time: 03:15:36
(UTC+00:00)

BREEZE-M DEB (TANK) - Pass Details

Date: 19 May 2025
Orbit: 281 x 12175 km, 49.5° (Epoch: 14 June)

Event Time Altitude Azimuth Distance (km) Brightness Sun altitude
Rises 20:37:25 0° 283° (WNW) 8,103 8.5 -14.9°
Reaches altitude 10° 20:45:06 10° 279° (W) 5,235 7.5 -15.1°
Maximum altitude 20:55:15 39° 217° (SW) 1,391 4.0 -15.2°
Enters shadow 20:57:20 25° 166° (SSE) 1,407 3.8 -15.3°
